GSAT0224 (GALILEO 28)

Last updated on Thu Oct 10 2024 00:02:28 GMT+0000 (Coordinated Universal Time)

1 49810U 21116B 24283.18243747 -.00000078 00000+0 00000+0 0 9992 2 49810 57.2928 358.2983 0003206 210.0330 326.7785 1.70476355 17706
UTC large
Height (km)
Speed (km/s)
/
Latitude / Longitude
Inclination (degrees)
Orbital Period (minutes)
Azimuth
Elevation
Range (km)
Doppler Factor

Next 0 passes for location: London (51.5072 / 0.1276)

Sorry there are no passes over London.